SCP
0 0 0 0 0 0 0 0 0 0 0 0 0 0 0 0 0 1 1 1 1 1 1 1 1 1 1 1 1 1 1 1 1 1 1 0 0 0 0 0 0 0 0 0
0 0 0 0 0 0 0 0 0 0 0 0 0 0 0 0 0 1 1 1 1 1 1 1 1 1 1 1 1 1 1 1 1 1 0 0 0 0 0 0 0 0 0 0
0 0 0 0 0 0 0 0 0 0 0 0 0 0 0 0 0 0 0 1 1 1 1 1 1 1 1 1 1 1 1 1 0 0 0 0 0 0 0 0 0 0 0 0
0 0 0 0 0 0 0 0 0 0 0 0 0 0 0 0 0 0 0 0 0 0 1 1 1 1 1 1 1 1 0 0 0 0 0 0 0 0 0 0 0 0 0 0
0 0 0 0 0 0 0 0 0 0 0 0 0 0 0 0 0 0 0 0 0 0 0 0 0 0 0 0 0 0 0 0 0 0 0 0 0 0 0 0 0 0 0 0
0 0 0 0 0 0 0 0 0 0 0 0 0 0 0 0 0 0 0 0 0 0 0 0 0 0 0 0 0 0 0 0 0 0 0 0 0 0 0 0 0 0 0 0
0 0 0 0 0 0 0 0 0 0 0 0 0 0 0 0 0 0 0 0 0 0 0 0 0 0 0 0 0 0 0 0 0 0 0 0 0 0 0 0 0 0 0 0
0 0 0 0 0 0 0 0 0 0 0 0 0 0 0 0 0 0 0 0 0 0 0 0 0 0 0 0 0 0 0 0 0 0 0 0 0 0 0 0 0 0 0 0
0 0 0 0 0 0 0 0 0 0 0 0 0 0 0 0 0 0 0 0 0 0 0 0 0 0 0 0 0 0 0 0 0 0 0 0 0 0 0 0 0 0 0 0
0 0 0 0 0 0 0 0 0 0 0 0 0 0 0 0 0 0 0 0 0 0 0 0 0 0 0 0 0 0 0 0 0 0 0 0 0 0 0 0 0 0 0 0
0 0 0 0 0 0 0 0 0 0 0 0 0 0 0 0 0 0 0 0 0 0 0 0 0 0 0 0 0 0 0 0 0 0 0 0 0 0 0 0 0 0 0 0
0 0 0 0 0 0 0 0 0 0 0 0 0 0 0 0 0 0 0 0 0 0 0 0 0 0 0 0 0 0 0 0 0 0 0 0 0 0 0 0 0 0 0 0
0 0 0 0 0 0 0 0 0 0 0 0 0 0 0 0 0 0 0 0 0 0 0 0 0 0 0 0 0 0 0 0 0 0 0 0 0 0 0 0 0 0 0 0
-0 0 0 0 0 0 0 0 0 0 0 0 0 0 0 0 0 0 0 0 0 0 0 0 0 0 0 0 0 0 0 0 0 0 0 0 0 0 0 0 0 0 0 0
0 0 0 0 0 0 0 0 0 0 0 0 0 0 0 0 0 0 0 0 0 0 0 0 0 0 0 0 0 0 0 0 0 0 0 0 -0 -0 0 0 0 0 0 0
0 0 0 0 0 0 0 0 0 0 0 0 0 0 0 0 0 0 0 0 0 0 0 0 0 0 0 0 0 0 -0 -0 -0 -0 -0 -0 -0 -0 0 0 0 0 0 0
0 0 0 0 0 0 0 0 0 0 0 0 0 0 0 0 0 0 0 0 0 0 0 0 0 0 0 0 0 -0 -0 -0 -0 -0 -0 -0 -0 0 0 0 0 0 0 0
0 0 0 0 0 0 0 0 0 0 0 0 0 0 0 0 0 0 0 0 0 0 0 0 0 0 0 0 0 0 0 0 -0 -0 -0 0 0 0 0 0 0 0 0 0
0 0 0 0 0 0 0 0 0 0 0 0 0 0 0 0 0 0 0 0 0 0 0 0 0 0 0 0 0 0 0 0 0 -0 0 0 0 0 0 0 0 0 0 0
0 0 0 0 0 0 0 0 0 0 0 0 0 0 0 0 0 0 0 0 0 0 0 0 0 0 0 0 0 0 0 0 0 0 0 0 0 0 0 0 0 0 0 0
0 0 0 0 0 0 0 0 0 0 0 0 0 0 0 0 0 0 0 0 0 0 0 0 0 0 0 0 0 0 0 0 0 0 0 0 0 0 0 0 0 0 0 0
0 0 0 0 0 0 0 0 0 0 0 0 0 0 0 0 0 0 0 0 0 0 0 0 0 0 0 0 0 0 0 0 0 0 0 0 0 0 0 0 0 0 0 0
0 0 0 0 0 0 0 0 0 0 0 0 0 0 0 0 0 0 0 0 0 0 0 0 0 0 0 0 0 0 0 0 0 0 0 0 0 0 0 0 0 0 0 0
0 0 0 0 0 0 0 0 0 0 0 0 0 0 0 0 0 0 0 0 0 0 0 0 0 0 0 0 0 0 0 0 0 0 0 0 0 0 0 0 0 0 0 0
0 0 0 0 0 0 0 0 0 0 0 0 0 0 0 0 0 0 0 0 0 0 0 0 0 0 0 0 0 0 0 0 0 0 0 0 -0 -0 0 0 0 0 0 0
0 0 0 0 0 0 0 0 0 0 0 0 0 0 0 0 0 0 0 0 0 0 0 0 0 0 0 0 0 0 0 0 0 0 0 0 -0 -0 0 0 0 0 0 0
Wind_Speed
3 3 3 7 7 7 4 4 7 9 4 0 1 3 6 7 6 6 5 4 4 4 4 5 4 4 5 5 5 5 5 6 5 3 3 3 3 3 3 4 5 5 4 4
4 4 9 5 4 5 5 5 6 7 2 3 4 5 5 7 7 7 7 7 6 6 7 7 7 7 7 7 6 6 5 5 6 4 3 3 4 4 4 4 6 6 6 6
6 7 2 2 3 3 5 6 6 4 3 2 4 3 3 6 8 9 9 9 9 8 9 8 8 8 8 7 6 5 5 6 6 6 5 5 5 3 3 5 5 7 7 8
6 6 2 3 4 4 6 6 6 4 0 2 2 1 1 4 7 9 9 9 10 10 10 10 10 9 9 8 6 6 6 5 5 5 6 7 5 5 5 5 6 8 9 10
6 3 3 5 6 5 7 3 3 3 3 0 1 4 1 3 5 6 7 9 9 10 10 10 10 9 9 8 6 6 6 7 6 6 7 8 7 8 8 8 9 9 9 10
7 3 4 6 4 3 3 2 3 4 4 1 2 4 2 2 4 6 6 8 8 9 10 10 10 10 10 9 8 7 8 8 7 8 8 9 11 12 11 10 9 8 7 8
5 4 3 2 2 2 2 4 3 4 3 3 1 4 2 2 5 8 9 8 8 8 9 9 10 10 10 11 10 8 9 10 9 10 10 9 11 12 12 10 10 8 7 7
3 7 3 2 4 3 2 6 6 4 4 2 1 3 2 5 7 9 10 9 8 9 8 9 9 9 9 10 10 10 11 11 10 11 11 11 11 9 9 10 9 9 8 8
5 6 4 2 2 3 2 3 4 6 3 1 1 2 2 6 8 9 9 9 9 8 9 9 9 9 10 10 11 11 12 12 11 12 13 13 12 12 12 12 11 9 8 9
6 4 5 3 2 1 3 4 4 5 5 3 2 4 6 10 10 10 9 9 8 8 9 9 9 9 9 10 10 12 12 12 12 12 12 12 13 13 12 11 12 11 10 9
4 3 5 3 0 2 1 2 3 3 4 6 4 4 2 8 11 12 10 10 9 9 9 8 8 9 10 10 10 11 12 12 12 13 13 14 13 12 12 11 11 10 10 10
4 4 2 4 3 1 2 3 5 4 3 3 4 3 2 5 10 12 12 11 9 10 9 9 9 10 10 10 10 11 11 12 12 12 13 13 12 11 11 11 10 9 10 9
6 5 2 5 4 3 1 1 2 4 4 4 4 2 3 9 11 12 13 12 11 11 10 9 9 9 10 10 10 11 11 11 11 11 12 12 11 10 10 9 8 8 9 8
6 4 5 5 4 2 2 1 2 3 3 3 4 6 7 10 12 11 12 12 11 11 10 10 9 9 9 9 10 10 10 10 10 10 11 10 9 8 8 8 8 8 8 8
5 3 2 3 2 1 1 1 1 2 3 4 4 6 9 10 11 12 12 12 12 11 11 11 10 9 9 9 9 9 9 8 8 9 9 8 7 7 7 7 7 7 7 7
3 4 1 1 1 0 1 2 1 1 2 4 6 4 6 10 10 11 11 12 12 12 12 11 11 10 9 8 8 8 7 7 7 8 8 7 7 7 7 6 6 7 6 6
3 5 3 1 2 2 2 3 0 2 2 4 4 5 12 12 12 12 12 12 12 13 12 11 10 9 8 7 7 7 6 6 7 7 6 6 6 7 6 6 6 6 5 4
7 5 3 1 1 2 4 1 4 6 3 2 5 10 11 10 9 8 9 12 13 13 12 10 8 8 7 7 6 6 6 6 7 6 6 5 6 6 5 5 5 4 3 3
5 7 4 3 1 3 3 1 4 4 2 2 9 12 12 14 10 7 7 9 11 11 11 9 8 7 7 7 7 7 6 6 6 5 5 4 5 5 5 4 3 2 2 2
5 5 5 3 3 4 4 1 4 5 1 4 9 13 14 10 6 6 9 11 12 11 10 8 8 8 7 6 7 7 6 5 5 4 4 4 4 4 4 3 2 2 2 2
2 3 3 3 2 5 2 2 3 1 4 7 9 11 9 4 5 11 13 11 11 11 10 9 8 7 6 6 7 7 5 4 3 4 4 4 4 4 3 2 2 2 3 4
5 4 3 3 2 5 2 3 3 4 3 8 9 8 8 11 13 13 13 13 12 11 10 9 8 6 5 6 7 7 5 3 4 5 5 4 3 2 3 4 3 4 4 4
3 4 5 5 4 2 2 0 1 4 8 7 8 11 14 14 14 13 12 12 11 10 9 7 8 7 5 5 6 7 4 4 5 5 5 4 4 4 3 3 4 3 3 3
2 3 4 2 2 2 3 3 4 6 7 10 12 14 14 15 14 13 12 10 9 8 8 7 8 8 5 4 5 5 5 5 6 5 4 3 4 3 3 3 2 3 2 2
5 4 4 3 2 3 4 4 7 10 13 14 12 11 13 16 15 13 11 10 9 7 6 6 7 7 6 5 5 5 5 6 5 4 3 3 3 3 3 3 2 2 1 1
5 7 8 7 8 6 5 5 8 12 12 14 14 12 11 12 13 11 10 8 8 8 7 7 7 7 6 5 5 4 4 5 5 4 3 2 2 2 2 2 2 2 1 0
Wind_Direction
59 76 241 235 208 213 230 250 272 273 267 52 83 62 28 28 44 45 39 35 48 58 55 56 57 86 105 105 107 114 110 113 119 123 127 132 125 108 94 83 83 87 93 96
28 269 241 233 217 208 218 253 267 286 307 143 117 83 60 50 52 51 49 46 50 54 51 54 62 72 79 88 92 93 97 107 110 109 111 106 103 95 92 86 74 69 74 74
205 242 234 209 255 239 232 210 232 244 337 81 124 82 83 70 66 60 55 55 52 56 56 54 57 66 75 74 80 96 98 101 104 110 110 109 99 86 75 76 70 60 67 72
235 259 241 246 256 208 265 231 209 218 178 270 160 147 117 99 76 60 52 51 51 52 53 52 50 52 57 61 64 75 80 88 97 105 118 126 128 122 98 90 84 66 60 65
243 229 222 246 247 201 234 243 203 199 179 175 35 132 224 133 99 79 63 57 54 52 53 53 49 47 48 50 55 61 71 75 83 91 100 109 114 111 106 97 88 77 63 61
246 240 217 229 251 213 232 53 52 55 84 98 259 143 189 187 147 124 93 72 62 58 56 54 48 46 46 44 47 52 65 67 70 79 89 109 116 115 110 103 93 82 73 65
298 290 253 220 280 343 96 92 27 3 28 245 252 117 168 115 124 128 117 93 72 63 59 54 49 45 44 43 45 48 65 64 65 73 73 85 101 104 105 104 98 93 84 74
267 292 270 217 196 211 197 150 164 192 199 255 344 123 126 107 104 107 107 99 84 70 64 59 52 51 50 48 50 55 65 66 65 73 76 77 82 88 89 89 92 89 86 80
202 261 286 259 228 171 178 199 171 137 142 128 225 135 138 132 128 120 114 105 95 83 73 66 57 53 54 54 52 57 66 68 67 74 77 74 76 82 85 85 85 85 84 84
173 246 289 302 48 26 170 151 104 125 148 189 213 200 194 180 168 146 132 119 107 96 83 74 67 61 59 59 61 62 66 70 69 71 78 81 79 81 83 83 83 82 80 80
152 183 304 352 3 243 100 112 116 119 153 153 195 243 228 182 167 153 139 126 117 104 92 82 76 71 69 65 65 68 69 72 73 75 79 81 80 81 82 81 80 80 78 76
146 129 273 280 272 242 185 176 152 153 203 169 165 236 355 151 143 138 131 123 114 104 97 91 85 79 73 71 71 73 74 77 78 81 83 84 84 83 83 81 79 80 78 73
139 113 28 342 339 356 31 87 133 124 120 151 161 202 79 112 122 128 129 126 119 112 105 97 89 86 83 81 80 79 78 80 81 83 85 85 84 83 83 82 80 80 80 75
115 117 164 206 234 267 314 331 148 125 147 187 195 154 146 137 133 132 130 126 121 117 112 106 98 92 90 88 87 86 83 82 84 84 84 83 82 83 84 84 82 80 80 78
107 132 197 235 251 226 264 292 177 168 188 183 180 155 163 151 141 137 134 129 126 122 118 115 110 105 100 96 92 91 90 87 90 91 87 84 83 83 84 83 82 81 79 78
99 130 124 349 343 283 328 351 51 99 107 118 116 110 127 125 126 134 138 136 132 129 126 123 119 117 114 111 107 100 96 95 95 94 93 91 88 84 83 84 84 83 78 72
119 126 121 268 317 12 324 313 90 91 85 145 158 149 139 139 146 147 145 139 135 133 132 130 127 124 122 119 116 109 104 100 96 95 96 96 94 89 86 91 87 85 80 76
129 116 122 124 40 253 265 320 126 107 65 70 115 131 138 131 121 121 135 137 135 135 133 131 126 120 115 113 109 107 105 102 99 96 96 100 101 97 92 89 87 84 84 83
130 129 120 121 141 294 290 175 148 122 78 103 129 127 121 118 105 99 115 126 132 132 131 128 124 121 118 117 116 111 106 105 105 105 104 107 109 105 98 93 88 85 93 86
73 95 113 129 156 238 260 223 146 106 92 155 144 142 141 136 134 142 134 125 123 122 123 122 119 118 118 121 119 113 114 114 117 120 114 107 106 106 102 100 94 91 104 99
85 71 112 148 198 261 281 147 120 144 233 157 149 147 144 126 128 132 130 124 124 123 124 124 124 126 131 130 122 119 121 128 132 118 105 97 98 102 102 90 77 90 94 89
159 149 164 143 186 254 351 131 162 202 127 128 131 128 115 113 116 124 126 127 128 126 127 128 126 124 127 130 127 127 135 138 124 114 102 93 91 94 97 91 79 78 90 87
150 176 168 173 204 263 337 70 95 131 121 122 126 125 126 125 128 128 128 130 129 129 129 128 129 126 125 131 133 135 144 133 122 112 104 95 82 71 77 92 94 81 79 84
157 131 109 101 24 33 46 61 72 99 113 121 127 130 131 129 131 129 130 130 128 126 127 127 127 127 127 130 134 136 136 128 120 117 111 103 93 81 69 72 83 92 91 87
168 130 106 105 127 86 47 76 102 101 108 114 117 123 130 131 132 132 132 132 129 125 121 125 128 129 130 128 125 128 129 126 121 120 118 108 102 103 89 75 72 93 112 173
183 161 161 191 185 154 152 133 123 119 121 125 122 118 123 129 130 129 128 128 128 127 124 124 126 130 132 130 129 132 137 135 130 125 127 130 128 122 117 105 62 41 61 49